EW7210 Gijon ES current weather conditions

sailwx.info

Wind from 059 at 0 knots gusting 3

Air temperature 15.6° C
Dewpoint 13.4° C

Last reported at 2018-Apr-22 13:57 UTC.
Time now 2018-Apr-22 14:39 UTC

Location: N 43°29' W 005°44'.
View on Google Maps.

See reports from other nearby stations

  
Tides and Currents Weather Stations Pressure Air Temp Water Temp Dewpoint Dewpoint Depression Visibility Wind Speed Wind Dir Waves Ship Positions
date/time (UTC)wind fromknots sea level pressurealtimeterstation pressurevisibilityair tempwater tempwave heightnotes
2018-Apr-22 13:57 059 0 gusting 3 15.6
2018-Apr-22 13:42 009 0 gusting 4 16.1
2018-Apr-22 13:27 049 0 gusting 5 16.7
2018-Apr-22 13:12 030 17.2
2018-Apr-22 12:57 329 17.2
2018-Apr-22 12:42 355 0 gusting 5 17.8
2018-Apr-22 12:27 290 17.8
2018-Apr-22 12:12 340 17.2
2018-Apr-22 11:57 022 0 gusting 4 17.8
2018-Apr-22 11:42 009 18.9
2018-Apr-22 11:27 013 18.9
2018-Apr-22 11:12 323 19.4
2018-Apr-22 10:57 091 0 gusting 2 19.4
2018-Apr-22 10:42 047 0 gusting 2 19.4
2018-Apr-22 10:27 199 18.3
2018-Apr-22 10:12 199 17.8
2018-Apr-22 09:57 199 17.2
2018-Apr-22 09:42 199 17.2
2018-Apr-22 09:27 199 16.7
2018-Apr-22 09:12 199 16.7
2018-Apr-22 08:57 199 16.1
2018-Apr-22 08:42 199 15.6
2018-Apr-22 08:27 199 15.6
2018-Apr-22 08:12 122 15.6
2018-Apr-22 07:57 107 1 gusting 3 15.0
2018-Apr-22 07:42 137 1 gusting 2 14.4
2018-Apr-22 07:27 137 0 gusting 2 14.4
2018-Apr-22 07:12 203 13.9
2018-Apr-22 06:57 203 0 gusting 2 14.4
2018-Apr-22 06:42 215 13.9
2018-Apr-22 06:26 215 13.3
2018-Apr-22 06:11 206 13.9
2018-Apr-22 05:56 206 1 gusting 3 13.9
2018-Apr-22 05:41 187 0 gusting 3 13.9
2018-Apr-22 05:26 149 14.4
2018-Apr-22 05:11 149 13.9
2018-Apr-22 04:56 149 13.9
2018-Apr-22 04:41 147 13.9
2018-Apr-22 04:26 142 1 gusting 6 13.3
2018-Apr-22 04:11 187 2 gusting 4 13.9
2018-Apr-22 03:56 201 0 gusting 3 13.9
2018-Apr-22 03:41 201 0 gusting 2 13.9
2018-Apr-22 03:26 201 0 gusting 2 14.4
2018-Apr-22 03:11 128 15.0
2018-Apr-22 02:56 128 15.6
2018-Apr-22 02:41 128 15.0
2018-Apr-22 02:26 294 0 gusting 3 15.6
2018-Apr-22 02:11 289 1 gusting 6 15.6
2018-Apr-22 01:56 283 15.6
2018-Apr-22 01:41 192 0 gusting 3 16.1
2018-Apr-22 01:26 266 16.1
2018-Apr-22 01:11 205 16.1
2018-Apr-22 00:56 167 16.1
2018-Apr-22 00:41 292 1 gusting 7 16.1
2018-Apr-22 00:26 294 1 gusting 8 16.1
2018-Apr-22 00:11 288 5 gusting 11 16.1
2018-Apr-21 23:56 300 5 gusting 12 15.6
2018-Apr-21 23:41 298 5 gusting 12 15.0
2018-Apr-21 23:26 301 6 gusting 14 15.0
2018-Apr-21 23:11 308 2 gusting 4 15.6
2018-Apr-21 22:56 231 0 gusting 2 16.1
2018-Apr-21 22:41 231 0 gusting 1 16.7
2018-Apr-21 22:26 228 16.7
2018-Apr-21 22:11 198 0 gusting 3 16.7
2018-Apr-21 21:56 213 1 gusting 3 17.2
2018-Apr-21 21:41 217 16.7
2018-Apr-21 21:26 179 16.1
2018-Apr-21 21:11 290 15.6
2018-Apr-21 20:56 290 16.1
2018-Apr-21 20:41 290 15.6
2018-Apr-21 20:26 290 15.6
2018-Apr-21 20:11 290 16.1
2018-Apr-21 19:56 290 16.7
2018-Apr-21 19:41 290 16.7
2018-Apr-21 19:26 290 16.1
2018-Apr-21 19:11 290 16.7
2018-Apr-21 18:56 290 16.1
2018-Apr-21 18:41 290 16.7
2018-Apr-21 18:26 290 16.7
2018-Apr-21 18:10 290 17.2
2018-Apr-21 17:56 290 17.8
2018-Apr-21 17:40 290 18.3
2018-Apr-21 17:25 290 17.8
2018-Apr-21 17:10 290 17.8
2018-Apr-21 16:55 288 17.8
2018-Apr-21 16:40 288 17.8
2018-Apr-21 16:25 316 17.2
2018-Apr-21 16:10 316 17.2
2018-Apr-21 15:55 316 17.2
2018-Apr-21 15:40 316 17.2
2018-Apr-21 15:25 316 17.8
2018-Apr-21 15:10 313 17.8
2018-Apr-21 14:55 270 17.8
2018-Apr-21 14:40 025 17.2
2018-Apr-21 14:25 297 17.8
2018-Apr-21 14:10 295 17.2
2018-Apr-21 13:55 246 17.8
2018-Apr-21 13:40 294 17.8
2018-Apr-21 13:25 075 18.3
2018-Apr-21 13:10 302 20.0
2018-Apr-21 12:55 015 20.6
2018-Apr-21 12:40 032 20.6
2018-Apr-21 12:25 012 20.6
2018-Apr-21 12:10 030 20.0
2018-Apr-21 11:55 050 20.6
2018-Apr-21 11:40 054 20.0
2018-Apr-21 11:25 055 20.6
2018-Apr-21 11:10 055 21.1
2018-Apr-21 10:55 052 20.6
2018-Apr-21 10:40 052 20.6
2018-Apr-21 10:25 038 20.0
2018-Apr-21 10:10 043 21.1
2018-Apr-21 09:55 043 21.1
2018-Apr-21 09:40 043 20.6
2018-Apr-21 09:25 043 20.0
2018-Apr-21 09:10 174 19.4
2018-Apr-21 08:55 252 18.9
2018-Apr-21 08:40 252 17.2
2018-Apr-21 08:25 222 17.2
2018-Apr-21 08:10 222 16.1
2018-Apr-21 07:55 222 15.6
2018-Apr-21 07:39 222 13.9
2018-Apr-21 07:24 222 13.3
2018-Apr-21 07:09 222 12.8
2018-Apr-21 06:54 222 12.2
2018-Apr-21 06:39 219 11.7
2018-Apr-21 06:24 194 0 gusting 4 11.7
2018-Apr-21 06:09 215 11.1
2018-Apr-21 05:54 229 11.1
2018-Apr-21 05:39 229 0 gusting 3 11.1
2018-Apr-21 05:24 254 1 gusting 4 11.1
2018-Apr-21 05:09 212 11.1
2018-Apr-21 04:54 215 1 gusting 3 11.1
2018-Apr-21 04:39 207 1 gusting 6 11.1
2018-Apr-21 04:25 225 1 gusting 4 11.1
2018-Apr-21 04:09 202 2 gusting 4 11.1
2018-Apr-21 03:54 205 2 gusting 6 11.7
2018-Apr-21 03:39 200 2 gusting 6 11.7
2018-Apr-21 03:24 206 1 gusting 5 11.7
2018-Apr-21 03:09 207 3 gusting 5 12.2
2018-Apr-21 02:54 165 12.2
2018-Apr-21 02:39 178 0 gusting 2 12.2
2018-Apr-21 02:24 199 0 gusting 6 12.2
2018-Apr-21 02:09 225 2 gusting 5 12.2
2018-Apr-21 01:54 188 1 gusting 5 12.8
2018-Apr-21 01:39 230 0 gusting 3 12.2
2018-Apr-21 01:24 180 1 gusting 4 12.8
2018-Apr-21 01:09 191 0 gusting 5 12.2
2018-Apr-21 00:54 117 0 gusting 2 12.8
2018-Apr-21 00:39 229 12.8
2018-Apr-21 00:24 229 12.8
2018-Apr-21 00:09 230 0 gusting 2 12.8
2018-Apr-20 23:53 213 12.8
2018-Apr-20 23:38 198 1 gusting 4 12.8
2018-Apr-20 23:23 186 0 gusting 4 12.8
2018-Apr-20 23:08 209 1 gusting 3 12.8
2018-Apr-20 22:53 211 0 gusting 2 12.8
2018-Apr-20 22:38 211 13.3
2018-Apr-20 22:23 211 0 gusting 2 13.3
2018-Apr-20 22:08 276 13.3
2018-Apr-20 21:53 276 13.3
2018-Apr-20 21:38 310 13.3
2018-Apr-20 21:23 310 13.3
2018-Apr-20 21:08 310 0 gusting 2 13.3
2018-Apr-20 20:53 310 13.3
2018-Apr-20 20:38 315 13.3
2018-Apr-20 20:23 315 13.3
2018-Apr-20 20:08 315 13.9
2018-Apr-20 19:53 315 13.9
2018-Apr-20 19:38 315 13.9
2018-Apr-20 19:23 315 13.9
2018-Apr-20 19:08 315 13.9
2018-Apr-20 18:53 315 13.9
2018-Apr-20 18:38 298 14.4
2018-Apr-20 18:23 209 14.4
2018-Apr-20 18:08 067 14.4
2018-Apr-20 17:53 295 14.4
2018-Apr-20 17:38 290 0 gusting 2 15.0
2018-Apr-20 17:23 328 15.0
2018-Apr-20 17:08 046 0 gusting 2 15.6
2018-Apr-20 16:53 315 16.1
2018-Apr-20 16:38 290 16.1
2018-Apr-20 16:23 232 16.7
2018-Apr-20 16:08 300 0 gusting 3 16.7
2018-Apr-20 15:53 290 0 gusting 4 16.1
2018-Apr-20 15:38 313 1 gusting 3 16.7
2018-Apr-20 15:23 005 0 gusting 3 16.7
2018-Apr-20 15:08 031 1 gusting 4 16.1
2018-Apr-20 14:53 307 0 gusting 2 16.1
2018-Apr-20 14:38 312 16.1
2018-Apr-20 14:23 360 0 gusting 3 16.7
2018-Apr-20 14:08 360 0 gusting 5 16.7